TimePST,TemperatureF,Dew PointF,Humidity,Sea Level PressureIn,VisibilityMPH,Wind Direction,Wind SpeedMPH,Gust SpeedMPH,PrecipitationIn,Events,Conditions,WindDirDegrees,DateUTC
12:56 AM,48.0,34.0,58,30.23,10.0,WNW,5.8,-,N/A,,Clear,290,2013-02-24 08:56:00
1:56 AM,48.0,34.0,58,30.24,10.0,WNW,5.8,-,N/A,,Clear,300,2013-02-24 09:56:00
2:56 AM,46.9,34.0,61,30.24,10.0,Calm,Calm,-,N/A,,Clear,0,2013-02-24 10:56:00
3:56 AM,46.9,33.1,59,30.24,10.0,NW,6.9,-,N/A,,Clear,310,2013-02-24 11:56:00
4:56 AM,46.9,26.1,44,30.24,10.0,WNW,4.6,-,N/A,,Clear,290,2013-02-24 12:56:00
5:56 AM,46.0,25.0,44,30.25,10.0,WNW,5.8,-,N/A,,Clear,290,2013-02-24 13:56:00
6:56 AM,45.0,27.0,49,30.26,10.0,Calm,Calm,-,N/A,,Clear,0,2013-02-24 14:56:00
7:56 AM,48.0,28.0,46,30.27,10.0,West,5.8,-,N/A,,Clear,260,2013-02-24 15:56:00
8:56 AM,51.1,27.0,39,30.29,10.0,NW,3.5,-,N/A,,Clear,310,2013-02-24 16:56:00
9:56 AM,53.1,25.0,34,30.29,10.0,NNW,4.6,-,N/A,,Clear,340,2013-02-24 17:56:00
10:56 AM,55.0,23.0,29,30.27,10.0,Calm,Calm,-,N/A,,Clear,0,2013-02-24 18:56:00
11:56 AM,57.9,26.1,30,30.26,10.0,Variable,3.5,-,N/A,,Clear,0,2013-02-24 19:56:00
12:56 PM,59.0,25.0,27,30.23,10.0,Calm,Calm,-,N/A,,Clear,0,2013-02-24 20:56:00
1:56 PM,61.0,26.1,26,30.21,10.0,Variable,3.5,-,N/A,,Clear,0,2013-02-24 21:56:00
2:56 PM,61.0,23.0,23,30.20,10.0,Variable,3.5,-,N/A,,Clear,0,2013-02-24 22:56:00
3:56 PM,62.1,25.0,24,30.19,10.0,NW,8.1,-,N/A,,Clear,320,2013-02-24 23:56:00
4:56 PM,61.0,35.1,38,30.19,10.0,North,9.2,-,N/A,,Clear,350,2013-02-25 00:56:00
5:56 PM,54.0,43.0,66,30.20,10.0,North,9.2,-,N/A,,Clear,360,2013-02-25 01:56:00
6:56 PM,51.1,41.0,68,30.21,10.0,North,8.1,-,N/A,,Clear,350,2013-02-25 02:56:00
7:56 PM,51.1,42.1,71,30.23,10.0,NW,3.5,-,N/A,,Clear,320,2013-02-25 03:56:00
8:56 PM,50.0,41.0,71,30.24,10.0,Calm,Calm,-,N/A,,Clear,0,2013-02-25 04:56:00
9:56 PM,46.9,39.0,74,30.26,10.0,Calm,Calm,-,N/A,,Clear,0,2013-02-25 05:56:00
10:56 PM,48.0,37.0,66,30.26,10.0,Calm,Calm,-,N/A,,Clear,0,2013-02-25 06:56:00
11:56 PM,45.0,32.0,60,30.27,10.0,Calm,Calm,-,N/A,,Clear,0,2013-02-25 07:56:00